Regional Weather Roundup
Issued by NWS Green Bay, WI

Home | Current Version | Previous Version | Text Only | Print | Product List | Glossary On
Versions: 1 2 3 4 5 6 7 8 9 10 11 12 13 14 15 16 17 18 19 20 21 22 23 24 25 26 27 28 29 30 31 32 33 34 35 36 37 38 39 40 41 42 43 44 45 46 47 48 49 50
000
ASUS43 KGRB 251311
RWRGRB

NORTH-CENTRAL AND NORTHEAST WISCONSIN REGIONAL WEATHER ROUNDUP
NATIONAL WEATHER SERVICE GREEN BAY WI
800 AM CDT MON JUL 25 2016

WIZ005-009-010>012-018-019-251400-
NORTH CENTRAL WISCONSIN

CITY           SKY/WX    TMP DP  RH WIND       PRES   REMARKS
IRONWOOD       SUNNY     66  63  88 W7        29.97R
MANITOWISH WTR SUNNY     65  62  89 NW8       30.00R
ARBOR VITAE    SUNNY     69  62  77 NW9       30.00R
EAGLE RIVER    SUNNY     67  58  72 NW10      29.99R
LAND O LAKES   SUNNY     67  58  72 NW12      30.00R
RHINELANDER    SUNNY     68  60  75 W8        30.01R
PHILLIPS       SUNNY     66  62  89 CALM      30.02R
ANTIGO         SUNNY     66  62  86 NW3       30.00R
TOMAHAWK       SUNNY     66  61  83 NW6       30.02R
MERRILL        SUNNY     66  63  88 NW7       30.01R
$$

WIZ013-073-251400-
NORTHEAST WISCONSIN

CITY           SKY/WX    TMP DP  RH WIND       PRES   REMARKS
IRON MOUNTAIN  SUNNY     70  59  68 W12G21    29.93R
MARINETTE        N/A    N/A N/A N/A MISG        N/A
OCONTO         SUNNY     70  66  87 W9        29.94R
$$

WIZ017-030-035>037-045-251400-
CENTRAL WISCONSIN

CITY           SKY/WX    TMP DP  RH WIND       PRES   REMARKS
MEDFORD        SUNNY     65  65 100 W7        30.02S
WAUSAU         SUNNY     68  62  81 W9        29.99R
MOSINEE        SUNNY     68  64  88 W5        30.02R
MARSHFIELD     SUNNY     69  62  78 NW9       30.02R
WISC RAPIDS    SUNNY     69  62  78 NW7       30.03R
STEVENS POINT  SUNNY     67  61  81 W6        30.02R
WAUPACA        SUNNY     72  65  78 W5        30.00R
SHAWANO        SUNNY     71  63  76 W6        29.97S
CLINTONVILLE   SUNNY     70  61  73 NW8       29.98R
WAUTOMA        SUNNY     71  65  81 W8        30.01R
$$

WIZ038-039-048-051-251400-
FOX VALLEY

CITY           SKY/WX    TMP DP  RH WIND       PRES   REMARKS
NWS GREEN BAY  SUNNY     71  66  84 W9        29.97R
APPLETON       MOSUNNY   70  63  78 W8        29.96S
OSHKOSH        SUNNY     71  63  75 W10       29.99R
FOND DU LAC    SUNNY     73  65  75 NW9       29.99S
$$

WIZ022-050-052-251400-
EAST CENTRAL WISCONSIN

CITY           SKY/WX    TMP DP  RH WIND       PRES   REMARKS
EPHRAIM        FAIR      71  63  77 W9        29.92S
WASHINGTON ISL NOT AVBL
STURGEON BAY   SUNNY     72  64  76 W8        29.95R
MANITOWOC      MOSUNNY   72  63  73 W10       29.97R
SHEBOYGAN      SUNNY     73  65  75 NW7       29.98R
$$

LMZ563-521-522-541>543-251400-
LAKESHORE

STATION/POSITION TIME  TEMP    WIND        PRES    VSBY  WAVE
                       AIR SEA DIR/SP/G                  HT/PER
                 (UTC) (F)     (DEG/KT/KT) (MB)    (MI)  (FT/S)
SHEBOYGAN LKSHOR 1300   73     290/ 12/ 15 1014.6R
KEWAUNEE LKSHORE 1200   70     280/  6/  8 1013.4R
NORTHPORT PIER   1200   72     290/  7/ 14 1012.5R
N MID LAKE BUOY  1250   69 68  260/ 12/ 14 1011.6R         2/ 6
CHAMBERS ISLAND  1200   71     260/  6/  9 1012.9R
MENOMINEE LKSHOR 1200   70     270/  8/ 11 1012.3R
$$




USA.gov is the U.S. government's official web portal to all federal, state and local government web resources and services.